Retour au catalogue

STARLINK-37367

ActifCommunicationsVLEO
NORAD 68971·PAYLOAD·🇺🇸 United States

Lancé May 1, 2026 depuis Cape Canaveral Space Force Station

Loading…

Prochains Passages (prochaines 24 heures)

TLE

FraisSource: CelesTrak SupGP

Époque: Sep 15, 2026, 03:25 UTC

1 68971C 26099W   26258.14284722 -.00006449  00000+0 -19056-3 0  2586
2 68971  53.1559 100.6423 0001253  88.0342 309.2392 15.34389509    19

Suivez STARLINK-37367 en temps réel avec AllMySat

Download on the App Store